GFSMW_sfc_dewp_132.txt.gz
Dewpoint
57 57 59 58 62 64 66 71 71 72 73 73 72 71 68 70 72 74 73 74 73 73 73 73 69 67 70 71 77 75 75 73 72 69 61 66 66 61 62 67 66 65 66
53 58 59 57 60 64 66 71 73 75 74 75 75 72 71 73 67 74 75 74 72 73 73 74 67 66 71 73 75 76 73 69 70 63 61 64 67 64 62 67 68 69 68
53 55 58 58 60 65 68 71 72 74 75 75 74 73 73 72 74 72 73 72 72 73 73 75 73 74 66 66 75 73 66 62 68 70 62 61 62 61 65 67 68 66 68
55 53 55 56 59 64 66 71 73 74 74 76 75 73 70 71 72 69 71 73 74 75 73 75 76 75 71 71 75 73 73 68 67 67 66 70 66 60 62 66 68 68 66
53 53 55 57 59 62 63 70 73 75 75 75 76 74 74 72 71 74 76 77 77 76 75 75 75 76 76 77 76 76 76 75 75 72 70 69 70 71 63 66 65 70 69
53 55 55 59 59 62 62 68 73 74 75 75 75 75 73 70 69 73 73 72 72 73 76 76 75 77 77 76 77 77 76 77 77 76 74 71 69 68 68 66 65 63 69
52 53 55 56 59 62 64 68 72 73 73 73 74 73 74 73 73 74 73 75 74 72 74 77 77 76 77 76 77 77 77 76 75 75 74 72 71 70 69 68 66 64 66
53 51 55 58 60 62 64 67 71 73 73 73 74 75 75 72 72 74 74 75 72 73 72 74 75 77 76 76 77 76 75 75 74 73 75 74 72 70 69 69 68 65 66
55 51 56 59 61 63 64 68 72 72 72 71 74 74 75 75 73 78 77 74 72 74 70 71 74 76 76 76 75 75 76 74 75 74 75 75 73 71 71 63 70 70 66
62 55 54 57 60 61 63 65 71 72 72 71 72 72 73 74 75 77 73 75 73 72 74 73 74 75 76 77 77 76 75 75 71 72 73 74 73 72 71 68 70 71 66
63 58 59 55 60 60 62 63 68 71 71 71 71 71 71 72 74 75 74 75 76 71 74 76 75 76 76 77 77 77 75 75 75 75 74 74 75 74 73 73 71 70 70
64 65 64 61 60 63 63 63 66 69 69 70 72 71 71 71 71 73 74 77 77 77 77 76 77 76 76 75 77 75 75 74 73 73 73 73 70 74 73 74 74 73 73
63 65 65 64 63 64 70 66 67 66 69 71 70 70 70 71 71 72 73 76 75 75 74 75 76 76 75 75 75 75 75 75 74 74 73 73 73 73 73 74 74 74 72
62 64 65 68 65 66 71 69 71 70 69 68 69 71 71 70 70 74 75 76 77 76 76 76 76 76 76 75 74 75 75 75 74 74 74 73 73 74 74 72 74 72 73
65 66 66 66 68 68 70 73 71 70 73 72 71 72 73 74 74 75 75 75 76 75 76 76 76 76 73 71 74 74 74 74 74 75 74 73 74 71 72 75 74 75 73
62 63 68 65 68 68 70 71 72 74 75 75 74 74 74 75 76 77 76 76 76 76 76 75 75 74 70 67 69 71 75 75 74 73 74 75 72 72 70 70 70 71 74
60 61 63 66 68 68 69 69 71 71 72 74 74 72 74 75 76 75 77 76 76 76 75 75 75 75 75 66 68 69 71 73 74 74 73 72 70 72 74 70 67 68 68
60 61 62 64 66 69 68 69 69 70 72 72 73 72 74 74 75 75 74 75 75 75 75 75 75 74 74 64 64 64 68 71 71 72 72 71 73 65 68 71 73 73 67
61 62 63 64 64 66 67 69 69 69 70 70 71 72 73 71 72 72 74 74 74 74 74 74 74 73 72 61 61 64 69 71 71 67 60 62 65 56 57 67 70 69 65
61 61 62 63 63 64 66 68 69 68 70 71 71 70 72 71 70 70 71 72 72 70 68 61 59 60 61 56 57 62 68 68 67 64 59 56 54 54 55 63 66 66 66
61 63 62 62 61 62 67 68 68 68 70 71 71 71 71 69 70 69 68 68 65 63 59 58 58 57 57 56 55 56 64 64 65 63 59 57 54 53 53 55 57 57 62
60 61 61 62 62 62 62 62 62 65 67 68 67 67 68 67 67 67 65 65 62 60 59 57 57 57 56 54 53 54 55 61 63 60 57 54 52 51 52 55 55 56 59
59 60 60 61 62 62 61 60 61 64 64 63 63 63 64 64 66 66 65 64 63 61 60 59 58 57 56 56 54 53 54 55 57 57 54 52 52 53 54 54 55 57 58
58 59 59 59 61 62 61 61 61 61 61 60 59 58 60 60 61 62 61 62 61 63 61 59 57 55 56 56 56 56 57 56 55 54 54 55 55 55 55 56 57 58 58
58 59 59 59 60 61 61 61 62 61 59 59 58 57 56 55 53 52 53 56 53 52 59 58 57 56 53 48 46 51 55 55 53 56 55 55 55 54 54 54 54 55 54
58 59 59 59 59 59 59 61 61 61 59 58 58 57 57 58 57 55 53 46 46 44 44 44 51 49 46 43 42 41 44 47 47 56 55 55 55 55 55 55 54 53 53

GFSMW_sfc_dewp_135.txt.gz
Dewpoint
58 59 59 61 63 64 66 68 68 66 68 70 68 67 64 67 69 70 70 60 70 72 69 68 64 66 68 68 69 69 69 67 69 59 57 63 67 64 61 66 68 69 69
58 58 58 61 62 63 67 66 68 69 69 71 70 70 68 68 70 71 71 66 70 70 66 67 64 68 68 67 70 70 67 67 66 64 63 60 64 62 63 66 63 64 68
56 57 58 60 62 63 67 69 70 70 71 69 70 69 69 70 70 68 70 70 69 70 67 67 66 67 65 63 65 68 69 64 63 67 61 57 59 60 64 65 67 67 68
56 57 57 60 62 64 68 69 70 70 70 71 70 68 65 68 69 70 71 69 69 72 69 68 68 70 68 64 65 72 67 65 61 64 68 67 64 59 59 66 67 68 67
53 56 57 58 62 66 67 69 70 70 70 71 70 68 69 69 69 69 70 70 70 70 71 70 70 70 70 71 72 72 71 71 64 64 64 65 67 68 66 63 65 67 67
55 55 56 58 62 64 67 70 71 71 71 71 71 70 68 64 66 70 69 70 71 71 71 71 71 72 72 71 73 72 72 71 71 67 70 68 66 66 65 61 63 63 65
56 54 54 58 61 62 67 68 70 70 70 71 71 71 68 67 65 69 69 70 72 70 70 73 73 72 71 71 72 71 70 71 70 70 70 71 69 68 66 63 61 59 63
57 56 55 58 59 60 66 68 69 69 71 70 71 71 71 71 70 71 70 70 70 72 71 71 70 72 73 72 73 71 72 71 70 68 70 71 70 69 66 65 62 59 62
59 55 55 58 61 61 65 67 70 69 70 70 72 71 71 71 71 71 71 72 71 70 69 66 66 68 72 72 72 71 71 71 71 71 71 71 70 70 69 67 68 65 59
63 61 56 56 61 62 66 68 69 70 70 70 71 71 71 71 72 71 69 71 71 71 68 66 69 71 72 72 72 71 71 71 70 70 70 70 70 70 69 70 69 68 64
63 64 64 63 60 61 66 68 70 70 69 69 70 71 70 70 71 71 69 68 71 68 69 71 71 72 72 72 72 72 72 71 71 71 71 71 71 70 71 70 70 70 69
63 65 65 65 65 61 66 68 69 70 70 70 69 69 70 71 71 71 72 71 72 72 71 72 72 72 72 72 72 72 72 71 71 70 70 69 72 70 69 71 70 70 69
64 65 66 66 66 67 63 68 69 69 70 69 69 69 69 69 69 70 71 72 72 72 72 72 71 71 72 71 72 72 72 72 72 72 70 70 70 70 69 70 70 70 71
64 65 64 62 62 66 69 66 69 70 69 69 69 68 69 68 69 71 70 72 72 71 71 71 72 71 72 72 71 72 72 71 72 72 71 71 71 70 71 70 70 71 70
64 64 63 62 63 63 66 70 68 70 71 70 68 68 68 68 69 69 70 70 72 71 71 71 72 73 72 72 71 72 71 71 71 71 71 71 71 70 70 71 71 70 69
61 64 64 63 62 63 64 70 68 67 68 66 69 70 70 71 71 72 72 72 71 72 73 72 72 72 71 67 68 68 70 70 70 70 70 72 71 71 69 69 68 69 68
61 62 64 64 64 66 68 68 68 69 69 71 71 70 72 71 72 72 71 71 70 71 70 71 71 71 70 66 67 69 68 70 70 69 70 71 70 66 68 69 66 66 67
60 61 62 63 65 67 67 68 68 68 69 69 69 69 69 69 70 70 69 69 70 70 70 70 71 70 65 64 65 65 67 68 69 64 64 67 61 57 61 66 68 67 64
61 62 63 63 63 64 65 67 66 68 68 69 70 70 71 70 69 68 69 70 70 70 67 63 64 66 60 60 60 64 67 68 62 58 57 57 54 56 60 65 66 63 60
61 62 63 62 61 62 64 65 66 67 68 69 69 70 70 69 68 68 68 68 66 63 61 59 59 59 59 56 57 61 66 66 62 58 56 57 54 54 56 60 62 62 62
62 62 62 61 61 63 65 64 65 66 68 70 69 69 69 68 67 66 66 63 61 60 58 57 57 56 56 55 54 57 63 64 64 61 58 56 54 53 54 56 58 59 61
61 61 61 62 62 62 62 62 62 64 65 65 66 65 66 66 65 64 63 61 60 59 58 57 57 57 55 53 53 54 56 61 61 57 56 54 52 52 53 56 55 57 59
60 61 61 61 61 61 61 60 61 63 63 62 63 63 63 64 65 64 62 61 60 59 59 58 57 56 56 57 53 53 54 55 56 56 54 52 52 53 55 55 56 57 58
59 60 60 61 60 61 61 61 60 61 61 58 58 58 58 56 57 58 57 58 58 60 59 57 55 55 55 53 54 55 54 55 55 54 52 53 55 54 54 54 54 56 56
58 59 59 59 60 60 60 60 60 59 58 57 57 56 55 53 52 49 48 53 49 51 57 56 56 53 51 47 46 48 52 53 52 53 54 55 54 53 53 53 54 54 53
58 59 58 58 58 59 59 60 61 60 58 57 56 57 55 55 54 52 49 46 45 45 44 46 50 47 46 44 41 41 43 46 47 52 51 51 52 52 52 51 51 51 52

GFSMW_sfc_dewp_138.txt.gz
Dewpoint
56 59 62 63 64 65 65 66 66 66 68 68 67 63 65 68 68 70 65 72 70 69 66 65 62 66 67 68 69 70 66 66 66 61 56 62 67 64 64 68 68 69 70
57 60 62 63 64 64 66 67 66 66 69 70 68 68 67 69 69 69 65 71 72 70 68 66 62 66 66 68 67 70 67 65 66 64 62 59 59 63 62 66 66 66 70
56 59 61 61 62 65 65 66 67 68 70 69 69 68 69 70 69 69 69 70 70 69 67 64 64 66 65 63 65 66 67 61 62 65 60 57 60 61 63 65 66 66 68
57 58 59 61 62 65 65 66 69 69 68 68 69 65 65 67 68 69 70 70 70 69 68 66 66 68 67 63 64 71 67 63 59 63 68 66 63 59 61 66 67 67 65
56 57 59 61 61 65 66 66 69 69 70 69 69 68 67 67 68 69 69 68 71 70 69 68 67 69 69 69 70 71 68 68 64 64 64 66 66 65 62 62 66 66 64
57 57 59 61 61 65 66 68 68 68 70 69 69 69 67 66 66 68 69 69 69 70 71 69 70 70 72 71 72 72 71 71 68 64 66 66 64 64 65 64 65 63 64
56 57 57 60 61 65 66 68 68 69 70 69 70 69 68 64 65 68 68 69 71 70 70 71 71 71 70 70 71 70 69 70 70 69 69 69 69 69 66 63 61 59 61
58 57 56 60 62 65 66 67 68 68 70 69 69 69 68 67 66 68 70 69 70 71 71 71 71 71 72 72 72 71 71 71 70 69 68 69 70 69 67 65 64 61 61
63 60 59 59 61 63 66 67 69 68 69 69 69 70 70 70 69 69 70 69 70 70 70 68 66 65 71 71 71 70 70 71 70 69 70 70 70 70 68 67 68 64 61
64 64 64 60 61 62 66 66 69 67 68 68 70 70 70 70 70 70 71 70 70 70 68 66 67 67 71 71 71 70 71 70 70 70 70 69 69 69 69 69 69 67 65
64 65 65 65 61 61 65 66 68 68 68 69 70 70 70 70 71 71 70 70 70 70 67 66 70 70 71 71 71 71 71 71 70 70 70 70 70 70 70 69 70 69 69
64 65 66 66 66 61 63 66 68 68 68 69 71 70 70 70 69 71 70 69 70 69 67 68 71 71 71 72 71 71 71 71 70 70 70 69 71 69 69 70 69 69 68
64 65 64 63 63 67 67 66 68 68 68 69 69 70 69 69 68 70 70 70 70 71 71 70 71 71 71 71 71 71 71 71 71 71 71 70 70 69 69 69 69 69 70
64 65 63 63 63 64 66 68 70 71 70 69 69 69 69 69 69 70 69 70 71 71 71 71 71 70 70 71 70 70 71 70 71 71 71 70 70 70 69 70 69 70 70
62 64 64 63 63 63 64 68 68 69 69 70 69 68 69 69 68 69 70 70 71 71 70 70 71 71 71 71 71 71 71 71 70 71 71 71 71 70 69 70 68 69 68
61 63 65 64 63 64 66 67 67 69 68 68 69 69 68 69 69 69 70 71 71 71 70 70 70 70 73 67 67 68 68 69 70 69 69 71 70 69 67 67 67 67 68
60 60 62 64 64 65 67 67 67 67 68 67 68 69 70 69 69 70 70 70 70 70 70 70 70 69 70 64 66 67 68 68 68 68 69 70 65 63 67 66 66 65 64
60 59 61 62 64 65 66 67 68 68 69 68 68 69 69 70 70 70 70 69 69 69 69 69 68 66 64 63 63 65 67 67 64 63 64 63 58 58 61 66 68 63 61
61 61 61 61 63 61 64 65 66 67 69 68 67 66 69 69 69 69 68 69 69 66 64 65 66 63 60 60 61 64 67 63 59 58 57 56 57 57 60 66 63 60 60
61 62 63 62 60 61 62 64 65 65 67 68 68 70 69 68 68 68 67 66 64 62 61 60 60 60 59 55 56 62 67 61 58 56 57 57 55 55 57 63 62 61 62
62 62 61 61 62 62 63 64 65 65 68 68 68 68 68 67 67 66 65 64 62 60 59 57 56 56 55 55 54 55 63 64 62 59 58 57 55 53 54 56 60 61 62
61 60 61 61 61 62 63 63 62 64 65 66 66 66 66 66 65 63 62 61 60 58 57 57 56 56 55 54 53 54 56 60 59 57 56 55 52 52 53 55 55 56 59
59 60 60 61 61 61 62 61 62 62 62 64 64 63 63 63 63 62 61 60 59 59 58 57 56 55 56 57 53 53 54 56 56 56 54 53 52 53 54 54 55 56 58
59 60 60 60 59 60 61 61 61 60 60 60 59 57 57 55 55 57 56 58 58 57 57 55 54 55 51 52 52 53 53 54 54 54 53 55 54 53 53 54 54 56 55
59 59 59 60 59 60 60 60 59 59 57 57 57 55 54 52 50 48 50 52 49 51 57 55 53 52 50 48 47 48 51 51 51 52 52 52 53 52 51 52 51 52 52
58 59 58 60 59 57 59 60 60 58 57 56 56 55 54 53 52 50 48 46 45 45 46 47 50 48 47 44 41 41 42 42 44 50 49 49 49 50 48 48 48 48 47

GFSMW_sfc_dewp_141.txt.gz
Dewpoint
56 61 63 64 65 66 66 66 66 66 67 67 65 65 66 66 68 70 70 71 70 68 64 63 64 66 65 67 67 68 65 65 66 58 62 63 65 65 64 66 67 67 69
56 59 62 64 64 65 65 66 65 66 67 67 67 64 65 68 68 67 67 71 69 69 65 63 64 66 65 65 67 67 64 64 65 63 60 57 58 63 62 65 65 64 67
56 59 62 63 64 64 65 66 65 66 68 68 69 68 69 69 69 69 66 68 71 69 67 66 61 65 64 63 63 65 64 60 61 65 58 56 58 60 61 64 65 65 66
58 60 61 62 63 64 65 66 66 67 69 69 67 66 65 66 67 68 69 68 70 68 67 63 65 67 66 62 65 69 65 62 58 63 66 64 60 57 59 64 66 66 66
57 60 61 62 62 64 65 66 68 68 67 68 67 65 66 67 67 68 68 68 69 69 69 67 66 68 69 68 69 71 66 66 64 65 64 64 64 64 61 60 62 65 64
57 58 61 61 62 64 65 66 68 68 68 68 68 67 66 66 66 66 68 69 69 70 69 69 67 69 69 70 71 71 69 69 67 64 64 64 64 63 63 62 63 63 63
59 60 60 60 61 64 65 66 68 68 69 68 68 68 67 66 66 66 68 68 69 69 70 70 69 69 71 71 71 70 69 69 69 67 67 68 67 68 66 64 62 61 60
61 61 59 60 61 63 65 66 67 67 68 68 68 68 68 66 64 67 68 68 69 70 70 71 71 71 71 71 71 71 70 70 70 69 67 68 69 69 67 65 65 61 61
61 60 60 61 62 62 65 66 67 66 68 68 69 68 67 66 64 67 69 69 69 70 70 71 70 68 70 71 70 70 70 70 69 69 69 69 69 69 68 67 67 64 61
62 63 63 58 61 62 64 66 66 66 68 68 68 69 68 67 68 69 69 70 69 69 69 67 67 66 66 70 70 70 70 70 69 69 69 68 69 69 69 69 68 67 65
64 64 64 65 61 62 64 65 66 66 67 69 69 68 69 69 69 70 70 70 69 69 69 67 67 68 69 71 70 70 70 70 69 69 69 69 69 69 70 69 69 68 67
64 64 65 64 65 62 63 64 66 67 67 67 68 69 69 69 69 70 69 70 69 70 69 68 69 69 70 71 71 70 70 70 70 70 69 69 70 69 68 69 68 69 68
64 65 63 63 64 66 64 65 66 67 67 68 68 68 69 69 69 70 70 69 70 70 69 67 67 70 71 70 71 70 71 70 70 70 70 70 69 68 69 68 68 69 69
64 63 63 63 63 64 65 68 68 69 68 68 68 69 69 69 69 69 69 69 68 68 70 70 70 70 70 70 70 70 70 70 71 71 70 70 69 69 69 69 69 68 69
62 64 62 62 62 63 65 67 68 69 69 69 68 68 69 69 69 69 69 69 69 69 70 70 70 71 71 71 70 70 70 70 70 70 70 70 70 69 68 69 68 67 67
60 63 64 63 62 65 65 66 66 68 68 67 67 68 68 69 69 69 69 69 70 70 70 69 69 70 71 69 67 69 69 69 69 69 69 70 69 68 66 67 67 67 66
60 62 62 64 64 64 66 66 67 67 67 67 68 68 67 68 69 69 69 69 69 70 70 69 69 69 68 64 65 67 67 68 68 68 68 70 65 62 64 66 65 63 62
59 60 61 62 64 65 66 67 68 67 67 67 66 67 67 68 69 68 68 68 69 68 67 68 68 66 64 62 62 65 67 66 63 63 63 63 59 60 61 65 64 60 59
59 60 61 61 62 62 62 65 65 67 66 66 65 66 67 67 68 69 68 67 68 66 65 66 65 64 60 60 60 62 66 62 59 58 58 58 58 57 59 66 61 59 57
61 61 62 61 60 60 61 63 64 66 68 66 66 67 67 68 68 68 67 66 65 64 63 61 60 59 59 57 58 61 66 59 56 58 58 58 56 55 56 63 60 60 60
61 61 61 61 62 63 63 65 65 65 66 68 68 68 68 67 66 65 65 63 62 61 60 58 58 57 57 56 55 58 64 61 60 59 57 57 55 54 54 57 60 60 61
60 59 61 61 61 62 64 63 63 64 65 66 66 66 66 66 65 63 62 62 60 59 57 56 56 56 55 54 54 55 58 60 59 56 56 55 53 52 53 56 55 56 58
59 60 60 60 60 61 62 62 62 63 64 64 63 64 63 63 63 62 61 60 59 58 57 56 55 55 56 55 53 54 55 56 57 57 55 53 52 52 53 54 55 56 57
58 59 59 59 59 60 61 61 61 62 62 61 60 59 58 57 59 58 60 60 60 59 58 56 56 54 52 52 52 53 54 54 55 55 55 54 53 53 53 53 53 55 54
58 58 59 59 58 60 60 60 61 60 59 59 59 57 57 56 51 49 51 53 51 53 56 55 54 52 51 50 47 48 51 51 51 52 52 53 52 51 51 50 50 50 49
57 57 59 58 57 58 60 60 59 59 58 56 56 56 54 53 51 50 49 46 46 46 47 49 50 48 47 45 43 42 41 43 48 50 49 48 48 48 47 47 46 44 45

GFSMW_sfc_dewp_144.txt.gz
Dewpoint
59 61 64 63 65 66 65 65 65 67 67 68 66 67 67 68 69 70 71 71 71 70 66 65 65 67 68 69 69 70 67 65 68 63 64 65 66 67 67 66 68 67 67
57 61 63 64 64 66 66 66 67 67 67 68 67 66 66 68 69 70 70 71 71 69 65 65 67 68 68 68 69 69 67 66 66 65 64 60 62 65 63 64 65 66 68
56 60 62 63 64 65 66 66 67 67 68 68 69 69 69 70 70 69 67 69 71 71 70 66 64 67 67 65 66 68 65 64 64 67 62 62 62 61 64 66 66 67 68
57 60 62 63 64 65 66 67 67 67 68 68 68 67 66 67 69 68 69 67 70 70 68 67 65 68 68 65 69 69 67 65 64 66 67 66 64 63 62 67 69 69 67
57 60 62 63 63 65 65 66 67 67 69 68 68 67 66 67 69 69 70 70 71 70 69 68 67 69 70 70 69 72 68 68 67 67 67 67 67 66 66 62 66 67 67
58 59 62 63 63 64 65 66 67 67 68 68 68 67 67 67 67 68 68 70 70 71 71 70 70 69 71 71 73 73 70 71 69 68 67 68 68 67 67 65 65 64 65
60 60 61 62 62 64 65 66 67 67 68 68 68 68 67 68 67 67 68 69 70 70 71 71 70 70 71 72 72 72 71 72 71 69 69 70 70 69 68 67 65 64 64
61 61 61 61 62 63 65 65 67 67 68 68 68 68 69 67 67 68 69 69 70 71 72 72 72 71 72 73 72 72 72 72 72 72 71 70 70 71 69 67 67 65 64
60 60 62 61 62 62 65 65 66 67 68 68 68 68 69 68 66 67 69 69 71 71 71 72 72 72 72 73 73 72 72 72 72 71 71 72 71 71 70 69 69 68 64
63 61 61 61 62 62 64 66 66 66 67 68 68 68 68 68 68 68 69 70 71 71 72 71 71 70 69 72 73 72 72 72 72 71 71 71 71 72 71 72 71 70 69
63 64 64 64 63 63 63 65 66 66 67 68 68 69 69 68 69 68 69 71 72 71 71 70 69 69 69 69 72 72 72 71 72 71 71 71 72 71 72 72 71 71 70
64 65 65 65 65 63 63 64 65 66 66 68 68 68 69 69 69 69 70 71 71 71 71 70 69 69 71 72 72 71 72 72 71 72 71 71 71 71 72 72 71 71 71
64 65 64 63 65 65 64 64 65 66 66 68 68 68 69 69 69 69 70 71 71 71 71 71 70 70 71 72 73 72 72 72 72 72 72 72 71 72 72 71 71 71 70
64 64 63 63 64 65 67 67 67 68 67 67 68 68 69 69 69 70 70 70 70 71 71 70 70 69 71 72 72 72 72 72 72 73 72 72 72 71 71 71 72 71 71
62 63 62 62 63 64 66 68 69 69 69 69 68 68 69 70 70 70 70 71 71 70 70 71 72 71 72 72 71 71 71 71 71 72 72 72 72 69 69 72 72 71 70
61 63 63 62 63 65 66 66 68 69 69 69 69 69 70 70 70 70 70 70 70 71 71 71 71 71 71 68 67 70 72 71 71 71 71 71 70 68 65 65 67 68 70
60 62 62 64 64 64 66 65 67 67 67 67 68 68 69 69 69 70 70 70 70 71 71 71 71 71 70 64 65 67 70 70 70 70 70 71 65 64 65 65 65 63 61
59 60 62 63 64 66 65 66 67 66 66 66 67 68 68 68 69 69 69 70 70 70 71 70 70 68 64 62 62 64 69 68 65 63 63 63 62 61 62 65 65 59 58
60 60 62 62 63 63 63 64 66 67 66 65 66 67 68 67 67 68 69 70 69 69 68 67 66 65 63 61 60 65 68 62 60 59 60 60 60 58 59 66 61 58 56
61 62 63 62 61 62 62 62 64 66 67 66 66 66 66 67 68 68 67 67 65 64 63 62 62 62 63 58 59 63 64 61 61 60 59 58 57 55 58 64 61 58 58
61 61 61 61 62 62 63 63 65 65 67 68 68 67 68 68 68 66 65 64 64 63 61 60 59 59 58 58 56 59 64 61 60 60 58 58 55 53 54 57 62 62 59
60 61 61 61 61 62 64 64 64 65 65 67 66 66 67 66 65 63 63 62 60 59 58 57 57 57 57 55 55 56 58 60 59 57 57 56 52 51 53 57 55 55 58
60 60 60 60 61 62 62 62 62 63 65 64 63 62 62 63 64 62 61 60 60 59 57 57 56 56 56 56 54 54 55 56 58 58 55 52 51 52 55 54 55 57 60
59 59 58 59 59 60 61 61 61 62 62 61 60 60 60 60 60 61 61 60 59 58 58 57 56 55 54 54 55 55 56 55 56 55 54 54 53 53 53 53 52 54 54
59 59 58 58 59 60 60 61 61 61 60 59 59 57 56 55 52 48 50 56 53 57 58 58 56 54 53 51 48 51 55 56 54 55 56 54 52 51 50 49 49 51 51
58 58 58 58 58 60 60 60 60 61 60 59 59 58 56 55 53 54 51 47 46 47 47 48 51 49 47 45 43 42 43 46 48 53 53 52 52 51 51 50 49 49 47

GFSMW_sfc_dewp_147.txt.gz
Dewpoint
58 59 61 63 64 65 65 65 66 69 68 67 67 67 66 69 70 70 72 73 73 73 71 67 67 68 69 72 72 70 69 67 69 64 63 63 64 63 64 64 64 67 67
57 60 61 62 63 65 65 66 67 70 70 68 69 69 68 69 70 70 73 73 73 73 69 68 68 70 68 70 71 71 67 66 66 64 64 59 61 62 62 64 66 67 67
56 59 62 62 63 64 66 67 68 69 70 71 70 70 71 71 69 70 69 71 73 71 72 70 67 70 69 67 70 70 69 65 66 69 62 59 56 59 64 65 67 69 68
56 58 61 62 62 64 65 68 68 69 69 72 70 71 66 66 67 69 70 70 73 73 72 68 69 68 69 70 70 71 70 69 67 68 66 67 65 61 60 65 67 68 67
56 57 60 62 62 64 65 67 69 70 71 71 72 69 68 67 70 70 72 72 72 72 71 68 68 70 72 72 73 75 73 71 70 68 68 70 68 69 65 60 62 67 67
57 58 59 62 63 64 65 67 69 71 71 71 71 71 71 70 68 70 69 69 70 71 73 72 72 72 73 73 75 76 74 75 73 71 70 68 67 66 67 66 66 65 66
59 59 59 62 63 64 65 66 69 70 71 70 70 71 71 72 72 73 68 70 69 69 72 74 74 72 73 74 75 75 74 74 73 74 71 71 70 70 70 68 66 65 65
60 61 60 61 63 64 66 66 68 69 70 70 71 72 72 69 69 70 69 69 69 69 73 74 74 74 74 74 75 73 74 75 74 74 75 70 70 71 72 70 67 63 64
60 60 61 62 63 64 66 67 68 69 69 69 70 71 72 71 69 72 72 69 72 70 73 73 74 74 74 74 75 73 75 75 75 75 75 76 76 75 77 76 72 70 62
61 61 61 62 63 63 64 66 67 68 68 69 69 69 70 71 71 72 71 72 72 73 74 74 74 74 74 74 75 77 74 75 75 74 74 75 75 74 77 76 74 73 72
62 65 62 63 63 64 63 65 66 67 68 68 69 69 69 70 71 71 71 71 72 74 74 74 74 74 73 72 73 75 74 74 75 74 73 74 74 70 73 74 72 76 75
63 65 65 65 66 64 64 63 65 66 67 68 70 70 70 70 69 70 71 72 72 73 74 74 73 72 72 72 73 72 72 73 73 73 73 73 71 74 74 71 74 74 75
63 65 66 66 65 66 67 66 65 65 66 68 68 69 69 69 70 70 71 72 72 73 73 74 73 73 71 72 73 74 74 73 73 73 73 73 73 73 72 72 71 70 70
63 64 64 65 66 67 68 69 67 67 67 67 68 69 69 69 69 70 71 71 72 72 73 74 74 73 73 72 73 74 74 73 72 74 74 73 73 74 73 72 73 71 71
61 63 64 62 64 66 68 69 69 70 70 69 69 69 70 71 71 72 72 72 72 72 72 74 74 74 74 73 73 74 74 73 72 73 74 73 73 69 69 74 75 73 70
60 61 63 63 64 66 67 68 68 70 71 71 71 71 71 72 72 72 73 73 73 73 73 73 72 73 74 67 68 71 75 74 73 73 72 73 71 70 66 65 66 67 71
59 61 63 64 65 65 67 67 68 70 71 71 71 72 72 72 73 73 73 73 73 73 73 73 73 73 74 64 65 68 73 75 74 72 72 71 67 68 69 66 63 62 61
60 61 63 64 64 66 67 67 68 68 68 69 69 71 71 71 72 72 73 73 73 73 73 73 74 73 69 62 62 65 72 72 71 70 69 70 68 65 67 69 64 60 58
61 63 64 64 65 65 65 66 65 67 68 68 67 69 70 70 71 71 71 71 72 72 71 72 71 69 65 60 61 64 70 67 66 66 65 65 65 59 60 68 62 60 59
61 63 64 64 63 64 65 65 65 66 67 67 68 68 69 69 69 70 71 70 70 67 65 65 66 63 63 58 59 64 66 63 62 62 62 58 61 56 59 66 61 58 58
62 63 63 63 64 64 65 64 65 66 68 68 69 69 68 69 69 70 69 68 65 63 62 61 61 62 63 63 58 60 65 63 62 62 61 61 55 54 55 59 63 60 60
62 61 61 62 63 64 64 65 66 67 67 68 67 66 68 68 68 67 66 64 61 59 59 59 59 60 61 58 57 59 60 60 61 59 59 56 52 52 54 58 55 56 59
62 61 60 62 63 64 64 63 64 65 67 67 65 66 64 63 63 63 61 61 61 59 59 59 58 56 58 58 55 55 56 57 60 59 55 52 52 53 55 54 56 58 58
61 60 60 60 62 62 63 63 63 65 65 64 63 62 62 60 60 62 62 61 60 59 59 58 56 56 56 57 58 58 57 56 57 56 55 54 54 53 54 55 55 56 55
61 60 59 60 61 62 62 63 63 63 61 61 59 59 58 56 52 50 52 57 56 59 59 58 57 56 56 54 52 56 58 58 55 55 55 54 54 53 51 50 50 50 50
61 61 60 60 61 61 61 61 62 62 62 60 60 58 58 57 56 55 52 47 48 49 49 51 55 55 52 47 45 45 45 46 49 54 54 54 53 52 50 48 47 46 46

GFSMW_sfc_dewp_150.txt.gz
Dewpoint
56 58 60 61 62 64 66 67 67 70 69 67 65 64 63 65 66 67 70 72 71 73 74 69 68 68 68 71 72 70 70 65 65 63 59 60 63 63 63 63 63 65 66
54 57 59 60 61 64 66 66 67 70 71 67 68 66 66 65 67 68 71 72 72 74 71 72 69 71 66 70 72 73 67 66 65 63 60 57 59 59 61 64 66 66 66
53 55 59 59 61 63 66 67 68 70 71 70 69 69 69 69 67 68 68 70 71 72 73 73 71 71 70 67 72 70 71 64 67 69 63 57 54 57 63 65 65 67 67
55 55 57 60 60 62 65 67 69 70 71 72 70 71 65 63 64 66 67 68 72 72 71 71 70 71 69 73 71 71 72 71 66 67 66 70 68 60 58 61 64 64 62
55 55 56 59 59 62 64 66 70 71 70 72 72 73 70 64 65 65 72 72 72 72 71 71 69 72 70 73 75 75 74 71 69 65 66 69 66 69 63 57 59 63 62
56 57 57 59 60 61 64 65 70 72 72 71 72 73 72 70 66 67 67 66 67 69 73 73 73 73 73 74 74 75 73 75 72 69 69 64 62 61 62 60 61 59 62
57 57 58 58 61 62 64 65 69 71 71 71 71 72 72 72 72 69 65 67 65 65 71 74 74 72 74 74 74 75 73 72 71 73 68 69 67 66 65 63 60 60 61
58 58 59 59 62 62 64 65 68 71 71 71 71 72 74 67 67 69 65 66 64 66 70 73 73 74 74 74 75 71 71 74 71 72 72 67 67 67 69 66 64 60 60
58 58 59 60 62 62 64 66 67 70 70 69 71 72 72 72 69 70 71 67 71 67 72 72 73 73 74 74 74 72 72 72 72 72 73 71 68 69 69 69 68 66 60
60 61 60 60 61 62 63 65 67 68 69 69 69 69 70 72 71 72 72 71 71 73 72 73 73 72 74 74 76 71 73 72 72 70 73 73 69 70 71 74 68 69 73
59 61 63 62 62 62 63 63 65 67 68 68 69 69 69 69 71 71 71 72 71 73 74 74 74 72 73 73 76 74 72 72 72 72 73 73 73 69 70 75 69 71 73
59 61 64 64 64 64 64 63 65 66 67 68 70 69 70 70 68 70 70 71 72 72 73 73 74 74 73 74 74 73 70 71 72 71 72 71 68 72 74 68 73 70 71
61 62 63 65 66 67 67 66 65 65 65 67 68 69 69 69 69 69 70 71 72 72 70 72 74 73 71 72 73 73 71 71 72 71 72 72 72 72 70 71 68 65 67
59 62 65 64 66 68 69 69 69 68 67 66 67 69 69 69 69 70 71 71 72 72 71 72 73 72 71 71 72 73 72 72 71 73 73 72 71 73 74 71 72 70 69
58 60 63 66 64 65 68 69 70 70 70 68 68 69 71 71 71 71 72 72 72 72 72 72 73 71 71 68 71 71 71 73 72 73 72 72 72 69 70 75 72 74 75
57 58 61 64 64 66 67 68 70 70 71 71 70 71 72 72 73 73 73 73 73 73 73 72 72 72 68 66 68 70 71 72 72 71 72 73 71 71 66 66 64 67 71
57 58 62 63 66 66 67 66 69 69 71 72 71 72 73 73 73 73 74 74 74 74 74 73 72 72 72 66 66 69 72 72 75 73 73 73 70 70 71 64 62 62 62
58 61 63 64 65 67 68 68 67 68 69 69 71 72 73 73 73 74 74 74 74 74 74 73 73 73 71 62 64 67 73 73 73 72 72 72 71 69 69 71 68 65 64
60 63 64 65 64 64 66 66 67 68 69 69 69 70 71 72 72 73 74 74 75 76 75 73 74 74 70 60 62 67 73 72 70 70 70 69 69 61 62 69 67 65 61
59 61 62 64 64 64 65 65 65 66 67 69 69 70 70 70 70 72 73 74 74 73 72 72 73 68 69 59 60 67 70 68 66 67 65 59 60 58 59 69 65 62 60
60 61 62 62 63 64 64 65 65 66 67 69 69 69 69 69 69 70 71 73 72 69 69 66 66 67 67 64 57 61 69 66 65 64 64 61 55 55 56 60 64 60 60
59 59 61 61 63 64 65 65 66 67 68 69 68 66 68 69 70 71 71 71 67 65 64 62 62 63 64 59 57 58 61 62 64 63 61 57 53 53 55 58 55 56 59
59 59 59 61 63 64 65 65 65 67 67 67 67 66 64 65 65 64 63 62 63 62 61 61 60 58 60 58 55 55 56 58 62 62 55 53 52 54 56 56 56 57 59
60 59 60 60 61 64 65 65 65 66 67 66 65 65 64 63 63 62 62 61 60 60 59 58 57 57 58 58 59 58 58 56 58 57 58 56 55 55 56 57 57 59 58
61 60 60 61 61 62 63 64 65 64 64 64 63 63 61 59 56 52 52 59 57 59 60 59 58 58 57 57 55 57 60 59 57 57 59 60 58 55 54 54 54 55 54
62 62 61 60 61 62 63 64 65 63 62 61 61 62 60 58 57 56 54 47 47 47 46 48 56 56 50 46 46 46 47 49 51 59 59 56 55 53 53 52 50 48 49